Weather History for CYQT - February, 2014

Change the Weather History Date:

Wednesday, February 5, 2014

  Actual Average Record
Temperature  
Mean Temperature -4 °F -  
Max Temperature 8 °F -23 °F 42 °F (2005)
Min Temperature -17 °F -36 °F -18 °F (2007)
Degree Days  
Heating Degree Days 70    
Moisture  
Dew Point -11 °F    
Average Humidity 67    
Maximum Humidity 84    
Minimum Humidity 43    
Precipitation  
Precipitation 0.00 in 0.00 in - ()
Sea Level Pressure  
Sea Level Pressure 30.48 in    
Wind  
Wind Speed 6 mph ()    
Max Wind Speed 13 mph    
Max Gust Speed 17 mph    
Visibility 16.2 miles    
Events Snow    
Averages and records for this station are not official NWS values.
T = Trace of Precipitation, MM = Missing Value Source: Averaged Metar Reports

Daily Weather History Graph

Daily Weather History Graph

Search for Another Location

Airport or City:

Trip Planner

Search our weather history database for the weather conditions in past years. The results will help you decide how hot, cold, wet, or windy it might be!

Date:

Astronomy

Feb. 05, 2014 Rise Set
Actual Time 8:20 AM EST 6:02 PM EST
Civil Twilight 7:47 AM EST 6:36 PM EST
Nautical Twilight 7:09 AM EST 7:13 PM EST
Astronomical Twilight 6:33 AM EST 7:49 PM EST
Moon 11:01 AM EST (2/5) 12:27 AM EST (2/5)
Length of Visible Light 10h 48m
Length of Day
9h 42m
Waxing Crescent, 39% of the Moon is Illuminated
Feb 5
Waxing Crescent
Feb 6
First Quarter
Feb 14
Full
Feb 22
Last Quarter
Mar 1
New

Hourly Weather History & Observations

Time (EST) Temp. Windchill Dew Point Humidity Pressure Visibility Wind Dir Wind Speed Gust Speed Precip Events Conditions
12:00 AM -4.0 °F -16.3 °F -13.0 °F 65% 30.55 in 15.0 mi West 5.8 mph - N/A   Mostly Cloudy
1:00 AM -7 °F - -14 °F 59% 30.55 in 10 mi WNW 5.8 mph - -  
1:00 AM -7.6 °F -22.1 °F -13.0 °F 77% 30.55 in 15.0 mi WNW 6.9 mph - N/A   Mostly Cloudy
2:00 AM -9.4 °F -20.9 °F -14.8 °F 77% 30.56 in 15.0 mi WSW 4.6 mph - N/A   Scattered Clouds
3:00 AM -14.8 °F - -18.4 °F 84% 30.57 in 15.0 mi Variable 2.3 mph - N/A   Scattered Clouds
4:00 AM -16.6 °F -31.3 °F -22.0 °F 76% 30.56 in 12.0 mi WNW 5.8 mph - N/A   Partly Cloudy
5:00 AM -14.8 °F -24.8 °F -18.4 °F 84% 30.56 in 15.0 mi WNW 3.5 mph - N/A   Partly Cloudy
6:00 AM -14.8 °F - -20.2 °F 77% 30.56 in 15.0 mi West 2.3 mph - N/A   Overcast
7:00 AM -11 °F - -17 °F 64% 30.54 in 10 mi WNW 3.5 mph - -   Overcast
7:00 AM -11.2 °F -20.6 °F -16.6 °F 77% 30.54 in 15.0 mi West 3.5 mph - N/A   Overcast
7:20 AM -9.4 °F -20.9 °F -14.8 °F 77% 30.54 in 15.0 mi WNW 4.6 mph - N/A Snow Light Snow
8:00 AM -7.6 °F -18.8 °F -13.0 °F 77% 30.53 in 20.0 mi NW 4.6 mph - N/A   Overcast
9:00 AM -4.0 °F -14.6 °F -9.4 °F 78% 30.52 in 20.0 mi NW 4.6 mph - N/A   Overcast
10:00 AM -2.2 °F -18.0 °F -7.6 °F 78% 30.51 in 20.0 mi NW 9.2 mph - N/A Snow Light Snow
11:00 AM -0.4 °F -15.7 °F -9.4 °F 66% 30.50 in 20.0 mi NW 9.2 mph - N/A Snow Light Snow
11:19 AM -0.4 °F -17.6 °F -7.6 °F 72% 30.50 in 20.0 mi WNW 11.5 mph - N/A   Mostly Cloudy
12:00 PM 1.4 °F -15.3 °F -7.6 °F 66% 30.50 in 20.0 mi WNW 11.5 mph - N/A   Mostly Cloudy
1:00 PM 4 °F - -8 °F 43% 30.47 in 10 mi NW 12.7 mph - -  
1:00 PM 3.2 °F -13.1 °F -7.6 °F 61% 30.47 in 20.0 mi NW 11.5 mph 17.3 mph N/A   Scattered Clouds
2:00 PM 6.8 °F -5.9 °F -7.6 °F 52% 30.44 in 20.0 mi WNW 8.1 mph - N/A   Scattered Clouds
3:00 PM 8.6 °F -4.7 °F -5.8 °F 52% 30.41 in 20.0 mi West 9.2 mph - N/A   Scattered Clouds
4:00 PM 8.6 °F -6.3 °F -5.8 °F 52% 30.40 in 20.0 mi WNW 11.5 mph - N/A   Scattered Clouds
5:00 PM 8.6 °F -5.5 °F -5.8 °F 52% 30.40 in 20.0 mi West 10.4 mph - N/A   Scattered Clouds
6:00 PM 5.0 °F -6.9 °F -5.8 °F 61% 30.41 in 20.0 mi WSW 6.9 mph - N/A   Scattered Clouds
7:00 PM 4 °F - -7 °F 47% 30.40 in 10 mi West 10.4 mph - -  
7:00 PM 5.0 °F -10.0 °F -7.6 °F 56% 30.40 in 15.0 mi West 10.4 mph - N/A   Scattered Clouds
8:00 PM 1.4 °F -11.3 °F -7.6 °F 66% 30.39 in 15.0 mi WSW 6.9 mph - N/A   Scattered Clouds
9:00 PM 1.4 °F -14.5 °F -7.6 °F 66% 30.38 in 15.0 mi West 10.4 mph - N/A   Scattered Clouds
10:00 PM -0.4 °F -16.7 °F -9.4 °F 66% 30.38 in 15.0 mi West 10.4 mph 17.3 mph N/A   Partly Cloudy
11:00 PM -2.2 °F -18.0 °F -9.4 °F 71% 30.37 in 15.0 mi WSW 9.2 mph - N/A   Clear